• In Hungary
  • List of Countries
  • For 7 days
  • Water Temperature
  • Satellite Maps
  • Weather Map
  • News
  • Weather Widgets
  • user-avatar
    Login

    Hourly Weather Jaromer

    Today, 21 October, Saturday

    Time Temperature Precipitation Wind Pressure Humidity
    00:00 +12°C° 0.1 mm 2 mps 739 mmHg 79%
    01:00 +12°C° 0.1 mm 1 mps 739 mmHg 80%
    02:00 +12°C° 0 mm 2 mps 739 mmHg 83%
    03:00 +10°C° 0 mm 2 mps 739 mmHg 85%
    04:00 +10°C° 0 mm 2 mps 739 mmHg 88%
    05:00 +10°C° 0 mm 2 mps 739 mmHg 90%
    06:00 +9°C° 0 mm 2 mps 739 mmHg 91%
    07:00 +9°C° 0 mm 2 mps 739 mmHg 93%
    08:00 +10°C° 0 mm 2 mps 739 mmHg 86%
    09:00 +12°C° 0 mm 3 mps 739 mmHg 79%
    10:00 +13°C° 0 mm 3 mps 739 mmHg 71%
    11:00 +14°C° 0 mm 3 mps 739 mmHg 69%
    12:00 +14°C° 0 mm 3 mps 739 mmHg 66%
    13:00 +16°C° 0 mm 3 mps 739 mmHg 63%
    14:00 +16°C° 0 mm 2 mps 738 mmHg 65%
    15:00 +15°C° 0 mm 2 mps 738 mmHg 67%
    16:00 +15°C° 0 mm 1 mps 738 mmHg 69%
    17:00 +14°C° 0 mm 1 mps 738 mmHg 73%
    18:00 +13°C° 0 mm 1 mps 738 mmHg 77%
    19:00 +11°C° 0 mm 1 mps 738 mmHg 82%
    20:00 +11°C° 0 mm 1 mps 738 mmHg 83%
    21:00 +11°C° 0 mm 1 mps 738 mmHg 84%
    22:00 +10°C° 0 mm 2 mps 738 mmHg 85%
    23:00 +10°C° 0.1 mm 2 mps 738 mmHg 85%

    Tomorrow, 22 October, Sunday

    Time Temperature Precipitation Wind Pressure Humidity
    00:00 +12°C° 0.1 mm 1 mps 738 mmHg 85%
    01:00 +12°C° 0.1 mm 1 mps 738 mmHg 86%
    02:00 +12°C° 0.4 mm 2 mps 738 mmHg 88%
    03:00 +12°C° 0.4 mm 2 mps 738 mmHg 90%
    04:00 +12°C° 0.4 mm 2 mps 738 mmHg 92%
    05:00 +12°C° 1.1 mm 2 mps 738 mmHg 91%
    06:00 +11°C° 1.1 mm 3 mps 738 mmHg 91%
    07:00 +11°C° 1.1 mm 4 mps 738 mmHg 90%
    08:00 +11°C° 1 mm 3 mps 738 mmHg 89%
    09:00 +11°C° 1 mm 3 mps 739 mmHg 89%
    10:00 +10°C° 1 mm 3 mps 739 mmHg 88%
    11:00 +11°C° 0.1 mm 3 mps 739 mmHg 82%
    12:00 +12°C° 0.1 mm 3 mps 739 mmHg 76%
    13:00 +13°C° 0.1 mm 3 mps 738 mmHg 70%
    14:00 +13°C° 0.1 mm 3 mps 738 mmHg 71%
    15:00 +12°C° 0.1 mm 3 mps 738 mmHg 72%
    16:00 +13°C° 0.1 mm 2 mps 738 mmHg 74%
    17:00 +12°C° 0.1 mm 2 mps 738 mmHg 77%
    18:00 +10°C° 0.1 mm 2 mps 738 mmHg 79%
    19:00 +10°C° 0.1 mm 2 mps 738 mmHg 82%
    20:00 +9°C° 0 mm 2 mps 738 mmHg 83%
    21:00 +9°C° 0 mm 2 mps 738 mmHg 85%
    22:00 +8°C° 0 mm 2 mps 738 mmHg 86%
    23:00 +8°C° 0 mm 2 mps 739 mmHg 86%

    Day after tomorrow, 23 October, Monday

    Time Temperature Precipitation Wind Pressure Humidity
    00:00 +8°C° 0 mm 2 mps 739 mmHg 87%
    01:00 +7°C° 0 mm 2 mps 739 mmHg 88%
    02:00 +7°C° 0 mm 2 mps 738 mmHg 88%
    03:00 +7°C° 0 mm 2 mps 738 mmHg 89%
    04:00 +6°C° 0 mm 2 mps 738 mmHg 90%
    05:00 +7°C° 0 mm 2 mps 738 mmHg 90%
    06:00 +7°C° 0 mm 2 mps 739 mmHg 90%
    07:00 +7°C° 0 mm 2 mps 739 mmHg 90%
    08:00 +7°C° 0 mm 3 mps 739 mmHg 85%
    09:00 +8°C° 0 mm 3 mps 739 mmHg 80%
    10:00 +9°C° 0 mm 3 mps 739 mmHg 75%
    11:00 +10°C° 0 mm 4 mps 739 mmHg 73%
    12:00 +10°C° 0 mm 4 mps 739 mmHg 71%
    13:00 +11°C° 0 mm 4 mps 739 mmHg 69%
    14:00 +10°C° 0 mm 4 mps 739 mmHg 71%
    15:00 +10°C° 0 mm 3 mps 739 mmHg 73%
    16:00 +10°C° 0 mm 3 mps 739 mmHg 76%
    17:00 +9°C° 0 mm 3 mps 739 mmHg 80%
    18:00 +8°C° 0 mm 3 mps 740 mmHg 84%
    19:00 +7°C° 0 mm 2 mps 740 mmHg 89%
    20:00 +7°C° 0 mm 2 mps 740 mmHg 90%
    21:00 +7°C° 0 mm 2 mps 741 mmHg 91%
    22:00 +6°C° 0 mm 2 mps 741 mmHg 93%
    23:00 +6°C° 0 mm 2 mps 741 mmHg 93%

    24 October, Tuesday

    Time Temperature Precipitation Wind Pressure Humidity
    00:00 +6°C° 0 mm 2 mps 741 mmHg 94%
    01:00 +6°C° 0 mm 2 mps 741 mmHg 94%
    02:00 +6°C° 0 mm 2 mps 742 mmHg 94%
    03:00 +6°C° 0 mm 2 mps 742 mmHg 95%
    04:00 +6°C° 0 mm 2 mps 742 mmHg 95%
    05:00 +7°C° 0 mm 1 mps 743 mmHg 95%
    06:00 +6°C° 0 mm 1 mps 743 mmHg 95%
    07:00 +6°C° 0 mm 1 mps 743 mmHg 95%
    08:00 +8°C° 0 mm 1 mps 744 mmHg 89%
    09:00 +9°C° 0 mm 2 mps 744 mmHg 83%
    10:00 +10°C° 0 mm 2 mps 745 mmHg 77%
    11:00 +12°C° 0 mm 2 mps 745 mmHg 75%
    12:00 +12°C° 0 mm 2 mps 745 mmHg 74%
    13:00 +12°C° 0 mm 2 mps 745 mmHg 72%
    14:00 +12°C° 0 mm 2 mps 745 mmHg 74%
    15:00 +12°C° 0 mm 1 mps 745 mmHg 77%
    16:00 +11°C° 0 mm 1 mps 745 mmHg 79%
    17:00 +11°C° 0 mm 1 mps 745 mmHg 81%
    18:00 +10°C° 0 mm 1 mps 746 mmHg 84%
    19:00 +9°C° 0 mm 1 mps 746 mmHg 86%
    20:00 +9°C° 0 mm 1 mps 746 mmHg 87%
    21:00 +8°C° 0 mm 1 mps 746 mmHg 88%
    22:00 +8°C° 0 mm 1 mps 746 mmHg 89%
    23:00 +8°C° 0 mm 1 mps 746 mmHg 90%

    25 October, Wednesday

    Time Temperature Precipitation Wind Pressure Humidity
    00:00 +8°C° 0 mm 1 mps 746 mmHg 90%
    01:00 +7°C° 0 mm 1 mps 746 mmHg 91%
    02:00 +7°C° 0 mm 1 mps 746 mmHg 91%
    03:00 +7°C° 0 mm 1 mps 746 mmHg 91%
    04:00 +7°C° 0 mm 1 mps 746 mmHg 91%
    05:00 +7°C° 0 mm 1 mps 746 mmHg 92%
    06:00 +7°C° 0 mm 1 mps 746 mmHg 92%
    07:00 +6°C° 0 mm 1 mps 746 mmHg 92%
    08:00 +8°C° 0 mm 1 mps 746 mmHg 86%
    09:00 +10°C° 0 mm 1 mps 746 mmHg 80%
    10:00 +11°C° 0 mm 1 mps 747 mmHg 75%
    11:00 +11°C° 0 mm 1 mps 746 mmHg 76%
    12:00 +12°C° 0 mm 1 mps 746 mmHg 76%
    13:00 +12°C° 0 mm 1 mps 746 mmHg 77%
    14:00 +11°C° 0.1 mm 1 mps 746 mmHg 79%
    15:00 +11°C° 0.1 mm 1 mps 746 mmHg 82%
    16:00 +11°C° 0.1 mm 1 mps 746 mmHg 84%
    17:00 +11°C° 0 mm 1 mps 746 mmHg 86%
    18:00 +10°C° 0 mm 1 mps 746 mmHg 87%
    19:00 +10°C° 0 mm 1 mps 746 mmHg 88%
    20:00 +10°C° 0 mm 1 mps 746 mmHg 89%
    21:00 +10°C° 0 mm 1 mps 746 mmHg 90%
    22:00 +10°C° 0 mm 1 mps 746 mmHg 91%
    23:00 +10°C° 0 mm 1 mps 746 mmHg 92%

    26 October, Thursday

    Time Temperature Precipitation Wind Pressure Humidity
    00:00 +10°C° 0 mm 1 mps 746 mmHg 93%
    01:00 +10°C° 0 mm 1 mps 746 mmHg 94%
    02:00 +10°C° 0.1 mm 1 mps 746 mmHg 94%
    03:00 +10°C° 0.1 mm 1 mps 746 mmHg 95%
    04:00 +11°C° 0.1 mm 1 mps 746 mmHg 96%
    05:00 +11°C° 0.1 mm 1 mps 746 mmHg 96%
    06:00 +11°C° 0.1 mm 1 mps 746 mmHg 96%
    07:00 +11°C° 0.1 mm 1 mps 746 mmHg 96%
    08:00 +12°C° 0 mm 1 mps 746 mmHg 92%
    09:00 +13°C° 0 mm 2 mps 746 mmHg 87%
    10:00 +15°C° 0 mm 2 mps 746 mmHg 83%
    11:00 +15°C° 0 mm 2 mps 746 mmHg 80%
    12:00 +16°C° 0 mm 2 mps 746 mmHg 77%
    13:00 +17°C° 0 mm 2 mps 746 mmHg 74%
    14:00 +16°C° 0 mm 2 mps 746 mmHg 76%
    15:00 +16°C° 0 mm 2 mps 746 mmHg 78%
    16:00 +15°C° 0 mm 1 mps 746 mmHg 81%
    17:00 +14°C° 0 mm 1 mps 746 mmHg 84%
    18:00 +13°C° 0 mm 1 mps 746 mmHg 87%
    19:00 +12°C° 0 mm 1 mps 746 mmHg 90%
    20:00 +12°C° 0 mm 1 mps 746 mmHg 91%
    21:00 +12°C° 0 mm 1 mps 747 mmHg 91%
    22:00 +12°C° 0 mm 1 mps 747 mmHg 92%
    23:00 +12°C° 0 mm 1 mps 747 mmHg 92%
    Show more